Shelbyville, IN

11:17 PM EST on December 06, 2019 (GMT -0500)
Shelbyville Municipal

Weather History for KGEZ - October, 2019

Change the Weather History Date:

Tuesday, October 1, 2019

  Actual Average Record
Temperature  
Mean Temperature 78 °F 59 °F  
Max Temperature 91 °F 72 °F 91 °F (2019)
Min Temperature 64 °F 47 °F 35 °F (2003)
Degree Days  
Heating Degree Days 0 7  
Month to date heating degree days 7  
Since 1 July heating degree days 92  
Cooling Degree Days 12 1  
Month to date cooling degree days 1  
Year to date cooling degree days 900  
Growing Degree Days 28 (Base 50)    
Moisture  
Dew Point 64 °F    
Average Humidity 66    
Maximum Humidity 87    
Minimum Humidity 38    
Precipitation  
Precipitation 0.00 in 0.12 in 0.42 in (2012)
Month to date precipitation 0.12  
Year to date precipitation 33.57  
Sea Level Pressure  
Sea Level Pressure 30.01 in    
Wind  
Wind Speed 6 mph (SSW)    
Max Wind Speed 14 mph    
Max Gust Speed 24 mph    
Visibility 10 miles    
Events      
T = Trace of Precipitation, MM = Missing Value Source: NWS Daily Summary

Daily Weather History Graph

Daily Weather History Graph

Search for Another Location

Airport or City:

Astronomy

Oct. 01, 2019 Rise Set
Actual Time 7:39 AM EDT 7:25 PM EDT
Civil Twilight 7:12 AM EDT 7:52 PM EDT
Nautical Twilight 6:41 AM EDT 8:23 PM EDT
Astronomical Twilight 6:09 AM EDT 8:55 PM EDT
Moon 10:53 AM EDT (10/1) 9:39 PM EDT (10/1)
Length of Visible Light 12h 40m
Length of Day
11h 46m
Waxing Crescent, 12% of the Moon is Illuminated
Oct 1
Waxing Crescent
Oct 5
First Quarter
Oct 13
Full
Oct 21
Last Quarter
Oct 27
New

Hourly Weather History & Observations

Time (EDT) Temp. Heat Index Dew Point Humidity Pressure Visibility Wind Dir Wind Speed Gust Speed Precip Events Conditions
12:53 AM 70.0 °F - 64.0 °F 81% 30.02 in 10.0 mi South 3.5 mph - N/A   Clear
1:53 AM 72.0 °F - 64.0 °F 76% 30.01 in 10.0 mi South 5.8 mph - N/A   Clear
2:53 AM 71.1 °F - 63.0 °F 75% 30.02 in 10.0 mi South 5.8 mph - N/A   Clear
3:53 AM 69.1 °F - 63.0 °F 81% 30.02 in 10.0 mi South 4.6 mph - N/A   Clear
4:53 AM 66.9 °F - 62.1 °F 84% 30.02 in 10.0 mi South 4.6 mph - N/A   Clear
5:53 AM 66.0 °F - 62.1 °F 87% 30.04 in 10.0 mi SSE 3.5 mph - N/A   Clear
6:53 AM 64.9 °F - 61.0 °F 87% 30.06 in 8.0 mi Calm Calm - N/A   Clear
7:53 AM 66.0 °F - 62.1 °F 87% 30.06 in 5.0 mi SSE 4.6 mph - N/A   Clear
8:53 AM 72.0 °F - 64.9 °F 78% 30.07 in 10.0 mi South 6.9 mph - N/A   Clear
9:53 AM 78.1 °F - 66.0 °F 66% 30.06 in 10.0 mi SSW 9.2 mph - N/A   Clear
10:53 AM 84.0 °F 86.5 °F 66.9 °F 56% 30.05 in 10.0 mi SW 10.4 mph - N/A   Clear
12:53 PM 90.0 °F 92.8 °F 66.9 °F 46% 30.03 in 10.0 mi SW 13.8 mph 24.2 mph N/A   Mostly Cloudy
1:53 PM 89.1 °F 91.0 °F 64.9 °F 45% 30.03 in 10.0 mi West 12.7 mph - N/A   Scattered Clouds
2:53 PM 91.0 °F 91.9 °F 63.0 °F 39% 30.01 in 10.0 mi SW 11.5 mph 20.7 mph N/A   Scattered Clouds
3:53 PM 91.9 °F 92.9 °F 63.0 °F 38% 30.00 in 10.0 mi SW 13.8 mph 21.9 mph N/A   Partly Cloudy
5:53 PM 90.0 °F 90.0 °F 61.0 °F 38% 29.99 in 10.0 mi WSW 10.4 mph - N/A   Clear
6:53 PM 86.0 °F 86.3 °F 62.1 °F 44% 29.98 in 10.0 mi SW 6.9 mph - N/A   Clear
7:53 PM 75.9 °F - 64.0 °F 67% 29.97 in 10.0 mi SSW 3.5 mph - N/A   Clear
8:53 PM 73.0 °F - 64.0 °F 73% 29.96 in 10.0 mi South 3.5 mph - N/A   Clear
9:53 PM 72.0 °F - 63.0 °F 73% 29.96 in 10.0 mi SSE 5.8 mph - N/A   Clear
10:53 PM 73.9 °F - 63.0 °F 68% 29.95 in 10.0 mi South 5.8 mph - N/A   Clear
11:53 PM 72.0 °F - 63.0 °F 73% 29.94 in 10.0 mi South 5.8 mph - N/A   Clear